Roda de Ter - l'Esquerda





Hora UTC 07:25
Temperatura -0.5 ºC
Humedad 92.0 %
Presión 1027.6 hPa
Pluja 0.0 mm
Velocidad viento 0.0 km/h
Dirección viento ENE

Datos diarios 2020-02-20



Hora UTC (invierno +1h; verano +2h)
Temperatura (ºC) Humedad (%) Presión (hPa) Velocidad viento (km/h) Precipitación (mm)
Hora UTC Aire Humedad Presión Vel. Dir. Vel. Max Dir. Intent. máx 5 min.
00:05 2.1 90.0 1029.4 1.6 ENE 1.6 0.0
00:10 1.9 90.0 1029.2 1.6 ENE 3.2 0.0
00:15 2.0 90.0 1029.2 1.6 ENE 3.2 0.0
00:20 2.0 90.0 1029.2 1.6 ENE 3.2 0.0
00:25 2.0 90.0 1029.1 0.0 ENE 1.6 0.0
00:30 1.8 90.0 1029.1 0.0 ENE 3.2 0.0
00:35 1.8 90.0 1029.1 0.0 ENE 3.2 0.0
00:40 1.7 90.0 1029.1 0.0 ENE 3.2 0.0
00:45 1.7 91.0 1029.1 1.6 ENE 3.2 0.0
00:50 1.8 90.0 1029.1 0.0 ENE 1.6 0.0
00:55 1.8 91.0 1029.0 1.6 ENE 3.2 0.0
01:00 1.6 90.0 1029.0 1.6 ENE 3.2 0.0
01:05 1.5 90.0 1028.9 1.6 ENE 3.2 0.0
01:10 1.3 90.0 1028.8 3.2 ENE 3.2 0.0
01:15 1.4 91.0 1028.7 0.0 ENE 3.2 0.0
01:20 1.4 91.0 1028.8 1.6 ENE 3.2 0.0
01:25 1.4 91.0 1028.5 0.0 ENE 1.6 0.0
01:30 1.4 91.0 1028.5 0.0 ENE 1.6 0.0
01:35 1.3 90.0 1028.5 0.0 ENE 1.6 0.0
01:40 1.1 90.0 1028.4 1.6 ENE 3.2 0.0
01:45 1.1 90.0 1028.5 1.6 ENE 3.2 0.0
01:50 1.2 91.0 1028.3 1.6 ENE 1.6 0.0
01:55 1.2 91.0 1028.3 1.6 ENE 1.6 0.0
02:00 1.2 91.0 1028.3 0.0 ENE 1.6 0.0
02:05 1.2 91.0 1028.2 1.6 ENE 1.6 0.0
02:10 1.1 91.0 1028.3 1.6 ENE 1.6 0.0
02:15 1.1 91.0 1028.2 0.0 ENE 1.6 0.0
02:20 1.0 91.0 1028.1 1.6 ENE 1.6 0.0
02:25 0.9 91.0 1028.0 1.6 ENE 1.6 0.0
02:30 0.9 91.0 1027.9 0.0 ENE 1.6 0.0
02:35 0.8 91.0 1028.0 1.6 ENE 1.6 0.0
02:40 0.7 91.0 1027.9 1.6 ENE 1.6 0.0
02:45 0.0
02:50 0.7 91.0 1027.7 1.6 ENE 3.2 0.0
02:55 0.6 91.0 1027.8 0.0 ENE 3.2 0.0
03:00 0.3 91.0 1027.8 0.0 ENE 1.6 0.0
03:05 0.1 91.0 1027.7 0.0 ENE 1.6 0.0
03:10 0.3 91.0 1027.7 0.0 ENE 1.6 0.0
03:15 0.5 92.0 1027.6 0.0 ENE 0.0 0.0
03:20 0.6 92.0 1027.6 1.6 ENE 1.6 0.0
03:25 0.4 91.0 1027.5 1.6 ENE 1.6 0.0
03:30 0.4 91.0 1027.5 1.6 ENE 1.6 0.0
03:35 0.3 92.0 1027.4 0.0 ENE 3.2 0.0
03:40 0.3 92.0 1027.4 3.2 ENE 3.2 0.0
03:45 0.3 92.0 1027.4 1.6 ENE 3.2 0.0
03:50 0.2 91.0 1027.4 1.6 ENE 1.6 0.0
03:55 0.2 92.0 1027.3 0.0 ENE 1.6 0.0
04:00 0.2 92.0 1027.4 1.6 ENE 1.6 0.0
04:05 0.1 92.0 1027.3 0.0 ENE 1.6 0.0
04:10 0.1 92.0 1027.4 1.6 ENE 1.6 0.0
04:15 0.1 92.0 1027.4 1.6 ENE 3.2 0.0
04:20 0.1 92.0 1027.4 1.6 ENE 3.2 0.0
04:25 0.1 92.0 1027.4 0.0 ENE 1.6 0.0
04:30 0.1 92.0 1027.4 1.6 ENE 1.6 0.0
04:35 -0.1 92.0 1027.4 1.6 ENE 3.2 0.0
04:40 -0.2 92.0 1027.4 3.2 ENE 3.2 0.0
04:45 -0.2 92.0 1027.5 1.6 ENE 3.2 0.0
04:50 -0.3 92.0 1027.4 1.6 ENE 3.2 0.0
04:55 -0.3 92.0 1027.5 0.0 ENE 1.6 0.0
05:00 -0.4 92.0 1027.5 0.0 ENE 1.6 0.0
05:05 -0.3 92.0 1027.4 1.6 ENE 3.2 0.0
05:10 -0.2 92.0 1027.5 0.0 ENE 3.2 0.0
05:15 -0.2 92.0 1027.5 0.0 ENE 3.2 0.0
05:20 -0.2 92.0 1027.5 0.0 ENE 1.6 0.0
05:25 -0.2 92.0 1027.4 0.0 ENE 1.6 0.0
05:30 -0.3 92.0 1027.4 1.6 ENE 4.8 0.0
05:35 -0.3 92.0 1027.4 0.0 ENE 4.8 0.0
05:40 -0.4 92.0 1027.3 0.0 ENE 3.2 0.0
05:45 0.0
05:50 -0.4 92.0 1027.5 1.6 ENE 3.2 0.0
05:55 -0.5 92.0 1027.4 0.0 ENE 3.2 0.0
06:00 -0.6 92.0 1027.4 0.0 ENE 1.6 0.0
06:05 -0.7 92.0 1027.5 0.0 ENE 0.0 0.0
06:10 -0.7 92.0 1027.4 0.0 ENE 0.0 0.0
06:15 -0.7 92.0 1027.4 1.6 ENE 1.6 0.0
06:20 -0.6 92.0 1027.4 3.2 ENE 3.2 0.0
06:25 -0.6 92.0 1027.4 0.0 ENE 3.2 0.0
06:30 -0.7 92.0 1027.4 0.0 ENE 1.6 0.0
06:35 -0.6 92.0 1027.5 0.0 ENE 3.2 0.0
06:40 -0.7 92.0 1027.4 0.0 ENE 3.2 0.0
06:45 0.0
06:50 -0.8 92.0 1027.5 0.0 ENE 1.6 0.0
06:55 -0.8 92.0 1027.4 1.6 ENE 3.2 0.0
07:00 -0.9 92.0 1027.4 0.0 ENE 3.2 0.0
07:05 -1.0 92.0 1027.4 0.0 ENE 0.0 0.0
07:10 -0.8 92.0 1027.6 0.0 ENE 3.2 0.0
07:15 -0.6 93.0 1027.6 0.0 ENE 3.2 0.0
07:20 -0.6 92.0 1027.6 0.0 ENE 1.6 0.0
07:25 -0.5 92.0 1027.6 0.0 ENE 0.0 0.0
Máxima 2.1 93.0 1029.4 3.2 ENE 4.8 0.0
Mínima -1.0 90.0 1027.3
Total 0.0